Location: Flotzheim
(48.8375°N, 10.8136°E)
Time: 04:41:08
(UTC+00:00)

USA 234 - Pass Details

Date: 23 January 2021
Orbit: 1100 x 1107 km, 123.0° (Epoch: 25 February)

Event Time Altitude Azimuth Distance (km) Brightness Sun altitude
Exits shadow 20:01:16 44° 303° (WNW) 1,477 4.1 -39.2°
Drops below altitude 10° 20:05:31 10° 304° (NW) 2,967 6.2 -39.9°
Sets 20:08:01 0° 305° (NW) 3,928 7.0 -40.2°
